Regional Weather Roundup
Issued by NWS

Home | Current Version | Previous Version | Graphics & Text | Print | Product List | Glossary On
Versions: 1 2 3 4 5 6 7 8 9 10 11 12 13 14 15 16 17 18 19 20 21 22 23 24 25 26 27 28 29 30 31 32 33 34 35 36 37 38 39 40 41 42 43 44 45 46 47 48 49 50
284
ASUS43 KBIS 280731
RWRND
NORTH DAKOTA REGIONAL WEATHER ROUNDUP
NATIONAL WEATHER SERVICE EASTERN NORTH DAKOTA/GRAND FORKS ND
200 AM CDT MON MAY 28 2018

  NOTE: "FAIR" INDICATES FEW OR NO CLOUDS BELOW 12,000 FEET WITH NO
  SIGNIFICANT WEATHER AND/OR OBSTRUCTIONS TO VISIBILITY.

NDZ001>003-009>011-017-280800-
...NORTHWEST NORTH DAKOTA...

CITY           SKY/WX    TMP DP  RH WIND       PRES   REMARKS
WILLISTON      FAIR      62  50  64 N9        30.06R
MINOT          FAIR      61  52  72 NW9       30.03R
MINOT AFB      FAIR      63  50  63 N8        30.02R
$$

NDZ018>021-031>035-040>046-280800-
...SOUTHWEST NORTH DAKOTA...

CITY           SKY/WX    TMP DP  RH WIND       PRES   REMARKS
BISMARCK       FAIR      64  59  83 CALM      29.98R
DICKINSON      FAIR      62  56  80 NE6       30.02R
GARRISON         N/A     66  57  72 NE8       30.00R
HETTINGER      FAIR      59  56  89 N5        30.04R
$$

NDZ004>008-012>016-024-026-027-054-280800-
...NORTHEAST NORTH DAKOTA...

CITY           SKY/WX    TMP DP  RH WIND       PRES   REMARKS
GRAND FORKS    FAIR      60  59  96 N6        29.89F
GRAND FORKS AF FAIR      60  60 100 N3        29.91S
DEVILS LAKE    FAIR      63  58  83 NW12      29.98R
$$

NDZ022-023-025-028>030-036>039-047>053-280800-
...SOUTHEAST NORTH DAKOTA...

CITY           SKY/WX    TMP DP  RH WIND       PRES   REMARKS
JAMESTOWN      FAIR      66  59  78 NE13      29.90F
FARGO          FAIR      68  62  81 N9        29.85F
WAHPETON       FAIR      73  57  56 NE12      29.81F
$$




USA.gov is the U.S. government's official web portal to all federal, state and local government web resources and services.